Location: Albany
(35.0170°S, 117.8920°E)
Time: 21:30:10
(UTC+08:00)

A-11 Canister half - Pass Details

Date: 23 January 2021
Orbit: 1525 x 1684 km, 47.3° (Epoch: 03 March)

Event Time Altitude Azimuth Distance (km) Brightness Sun altitude
Rises 08:17:39 0° 237° (WSW) 4,873 11.2 34.7°
Reaches altitude 10° 08:20:54 10° 234° (SW) 3,864 10.8 35.4°
Maximum altitude 08:30:38 63° 153° (SSE) 1,738 10.1 37.4°
Drops below altitude 10° 08:40:00 10° 72° (ENE) 3,728 12.2 39.3°
Sets 08:43:04 0° 68° (ENE) 4,693 12.4 39.9°
